Oklahoma City, OK

7:55 PM CDT on April 25, 2017 (GMT -0500)
Will Rogers World

Weather History for KOKC - July, 2013

Change the Weather History Date:

Saturday, July 6, 2013

  Actual Average Record
Temperature  
Mean Temperature 84 °F 82 °F  
Max Temperature 95 °F 93 °F 110 °F (1996)
Min Temperature 72 °F 72 °F 55 °F (1972)
Cooling Degree Days 19 17  
Month to date cooling degree days 82 101  
Year to date cooling degree days 661 741  
Growing Degree Days 34 (Base 50)    
Moisture  
Dew Point 62 °F    
Average Humidity 51    
Maximum Humidity 68    
Minimum Humidity 34    
Precipitation  
Precipitation 0.00 in 0.10 in 1.93 in (2010)
Month to date precipitation T 0.65  
Year to date precipitation 31.85 19.33  
Sea Level Pressure  
Sea Level Pressure 29.87 in    
Wind  
Wind Speed 14 mph (SSE)    
Max Wind Speed 21 mph    
Max Gust Speed 30 mph    
Visibility 10 miles    
Events      
T = Trace of Precipitation, MM = Missing Value Source: NWS Daily Summary

Daily Weather History Graph

Daily Weather History Graph

Search for Another Location

Airport or City:

Trip Planner

Search our weather history database for the weather conditions in past years. The results will help you decide how hot, cold, wet, or windy it might be!

Date:

Astronomy

Jul. 06, 2013 Rise Set
Actual Time 6:21 AM CDT 8:48 PM CDT
Civil Twilight 5:51 AM CDT 9:18 PM CDT
Nautical Twilight 5:15 AM CDT 9:54 PM CDT
Astronomical Twilight 4:35 AM CDT 10:34 PM CDT
Moon 5:06 AM CDT (7/6) 7:33 PM CDT (7/6)
Length of Visible Light 15h 26m
Length of Day
14h 27m
Waning Crescent, 2% of the Moon is Illuminated
Jul 6
Waning Crescent
Jul 8
New
Jul 15
First Quarter
Jul 22
Full
Jul 29
Last Quarter

Hourly Weather History & Observations

Time (CDT) Temp. Heat Index Dew Point Humidity Pressure Visibility Wind Dir Wind Speed Gust Speed Precip Events Conditions
12:52 AM 79.0 °F - 62.1 °F 56% 29.88 in 10.0 mi SSE 15.0 mph 23.0 mph N/A   Scattered Clouds
1:52 AM 77.0 °F - 61.0 °F 58% 29.88 in 10.0 mi SSE 12.7 mph - N/A   Scattered Clouds
2:52 AM 75.9 °F - 61.0 °F 60% 29.88 in 10.0 mi SSE 15.0 mph 20.7 mph N/A   Scattered Clouds
3:52 AM 75.9 °F - 60.1 °F 58% 29.87 in 10.0 mi SSE 12.7 mph - N/A   Mostly Cloudy
4:52 AM 75.0 °F - 60.1 °F 60% 29.86 in 10.0 mi SSE 11.5 mph - N/A   Mostly Cloudy
5:52 AM 73.0 °F - 60.1 °F 64% 29.87 in 10.0 mi SSE 10.4 mph - N/A   Mostly Cloudy
6:52 AM 72.0 °F - 60.1 °F 66% 29.89 in 10.0 mi South 9.2 mph - N/A   Mostly Cloudy
7:52 AM 75.9 °F - 61.0 °F 60% 29.90 in 10.0 mi South 10.4 mph - N/A   Mostly Cloudy
8:52 AM 80.1 °F 81.2 °F 62.1 °F 54% 29.91 in 10.0 mi South 12.7 mph 20.7 mph N/A   Mostly Cloudy
9:52 AM 82.9 °F 84.0 °F 63.0 °F 51% 29.89 in 10.0 mi South 13.8 mph - N/A   Mostly Cloudy
10:52 AM 87.1 °F 87.8 °F 63.0 °F 44% 29.89 in 10.0 mi South 15.0 mph - N/A   Partly Cloudy
11:52 AM 88.0 °F 89.6 °F 64.9 °F 46% 29.88 in 10.0 mi SSW 13.8 mph 18.4 mph N/A   Scattered Clouds
12:52 PM 93.0 °F 95.9 °F 66.0 °F 41% 29.87 in 10.0 mi SSE 11.5 mph - N/A   Scattered Clouds
1:52 PM 95.0 °F 97.9 °F 66.0 °F 38% 29.86 in 10.0 mi SSE 18.4 mph 21.9 mph N/A   Mostly Cloudy
2:52 PM 93.9 °F 95.6 °F 64.0 °F 37% 29.85 in 10.0 mi SSE 13.8 mph 25.3 mph N/A   Mostly Cloudy
3:52 PM 95.0 °F 95.6 °F 62.1 °F 33% 29.84 in 10.0 mi SSE 15.0 mph 24.2 mph N/A   Mostly Cloudy
4:52 PM 93.9 °F 94.8 °F 62.1 °F 35% 29.84 in 10.0 mi South 16.1 mph 23.0 mph N/A   Mostly Cloudy
5:52 PM 91.9 °F 92.5 °F 62.1 °F 37% 29.83 in 10.0 mi SSE 15.0 mph - N/A   Mostly Cloudy
6:52 PM 91.0 °F 90.9 °F 61.0 °F 36% 29.83 in 10.0 mi SSE 15.0 mph 23.0 mph N/A   Scattered Clouds
7:52 PM 89.1 °F 89.3 °F 62.1 °F 40% 29.85 in 10.0 mi SE 16.1 mph 21.9 mph N/A   Scattered Clouds
8:52 PM 84.9 °F 87.1 °F 66.0 °F 53% 29.86 in 10.0 mi SE 13.8 mph - N/A   Scattered Clouds
9:52 PM 84.0 °F 85.8 °F 64.9 °F 53% 29.88 in 10.0 mi SE 16.1 mph 23.0 mph N/A   Scattered Clouds
10:52 PM 82.9 °F 84.4 °F 64.0 °F 53% 29.90 in 10.0 mi SE 13.8 mph 21.9 mph N/A   Mostly Cloudy
11:52 PM 82.0 °F 82.7 °F 61.0 °F 49% 29.91 in 10.0 mi SSE 12.7 mph - N/A   Mostly Cloudy